Location: Borojevi?i
(45.0486°N, 16.2297°E)
Time: 04:45:42
(UTC+00:00)

NOSS 3-2 (A) - Pass Details

Date: 08 August 2020
Orbit: 795 x 1413 km, 63.4° (Epoch: 19 September)

Event Time Altitude Azimuth Distance (km) Brightness Sun altitude
Rises 21:25:13 0° 234° (SW) 3,366 6.2 -25.4°
Reaches altitude 10° 21:27:36 10° 239° (WSW) 2,484 5.6 -25.6°
Maximum altitude 21:33:12 52° 316° (NW) 1,143 4.1 -26.0°
Drops below altitude 10° 21:39:38 10° 33° (NNE) 2,851 6.3 -26.4°
Sets 21:42:34 0° 38° (NE) 3,909 7.1 -26.6°
